Regional Weather Roundup
Issued by NWS Wilmington, NC

Home | Current Version | Previous Version | Text Only | Print | Product List | Glossary On
Versions: 1 2 3 4 5 6 7 8 9 10 11 12 13 14 15 16 17 18 19 20 21 22 23 24 25 26 27 28 29 30 31 32 33 34 35 36 37 38 39 40 41 42 43 44 45 46 47 48 49 50
000
ASUS42 KILM 310610
RWRILM
RWRILM
REGIONAL HOURLY WEATHER ROUNDUP
NATIONAL WEATHER SERVICE WILMINGTON NC
200 AM EDT THU JUL 31 2014

NOTE: "FAIR" INDICATES FEW OR NO CLOUDS BELOW 12,000 FEET WITH NO
SIGNIFICANT WEATHER AND/OR OBSTRUCTIONS TO VISIBILITY.

...............WFO WILMINGTON COUNTY WARNING AREA...............

......COASTAL NC AND SC COUNTIES......

CITY           SKY/WX    TMP DP  RH WIND       PRES   REMARKS
WILMINGTON     CLEAR     72  69  90 CALM      30.05F
SOUTHPORT      CLEAR     74  67  76 CALM      30.05S
N MYRTLE BEACH MOCLDY    75  67  76 CALM      30.04S
MYRTLE BEACH   MOCLDY    81  66  61 E10       30.04S

......INLAND NC AND SC COUNTIES.......

CITY           SKY/WX    TMP DP  RH WIND       PRES   REMARKS
LUMBERTON      CLOUDY    74  66  76 N6        30.07S
ELIZABETHTOWN  MOCLDY    70  66  88 CALM      30.07S
WHITEVILLE     PTCLDY    70  67  89 CALM      30.06S
FLORENCE       MOCLDY    72  68  87 NE5       30.06F
DARLINGTON     CLOUDY    73  66  78 NE5       30.08S

....................REST OF NORTH CAROLINA......................

.........EASTERN NC.........

CITY           SKY/WX    TMP DP  RH WIND       PRES   REMARKS
CAPE HATTERAS  CLOUDY    73  65  75 NE6       30.08F
JACKSONVILLE   MOCLDY    70  64  83 NE5       30.08R
MOREHEAD CITY  PTCLDY    73  68  84 NE3       30.07F
KENANSVILLE    MOCLDY    67  65  94 CALM      30.08F
NEW BERN       CLOUDY    70  66  87 CALM      30.08F
ELIZABETH CITY PTCLDY    71  61  70 CALM      30.09S

.........CENTRAL NC.........

CITY           SKY/WX    TMP DP  RH WIND       PRES   REMARKS
RALEIGH DURHAM CLOUDY    70  64  81 S3        30.09S
ROCKY MOUNT    MOCLDY    68  64  87 CALM      30.08F
ROANOKE RAPIDS NOT AVBL
FAYETTEVILLE   CLOUDY    74  65  73 NW5       30.08S
HOFFMAN        LGT RAIN  69  66  92 E5        30.10S

.........WESTERN NC.........

CITY           SKY/WX    TMP DP  RH WIND       PRES   REMARKS
CHARLOTTE      CLOUDY    70  64  81 CALM      30.09S
GREENSBORO     MOCLDY    68  62  81 S3        30.09S
HICKORY        NOT AVBL
BOONE          NOT AVBL
ASHEVILLE      NOT AVBL

.....................REST OF SOUTH CAROLINA.....................

.........EASTERN SC.........

CITY           SKY/WX    TMP DP  RH WIND       PRES   REMARKS
CHARLESTON     MOCLDY    77  71  82 NE3       30.02S
BEAUFORT MCAS  CLOUDY    83  74  74 S7        30.00S
HILTON HEAD    NOT AVBL

.........CENTRAL SC.........

CITY           SKY/WX    TMP DP  RH WIND       PRES   REMARKS
COLUMBIA       PTCLDY    75  66  73 CALM      30.04F
ORANGEBURG     MOCLDY    73  68  84 NE6       30.04S
SUMTER SHAW    PTCLDY    70  68  96 NE6       30.03F

.........WESTERN SC.........

CITY           SKY/WX    TMP DP  RH WIND       PRES   REMARKS
GREENVILLE     NOT AVBL
ROCK HILL      MOCLDY    68  66  93 CALM      30.09S
ANDERSON       MOCLDY    72  62  71 NE3       30.07S
CLEMSON        NOT AVBL
GREENWOOD      CLOUDY    74  66  76 SE3       30.07F


...................COASTAL AND OFFSHORE REPORTS..................

................LOCAL PIERS AND NC RESERVE................


STATION/POSITION TIME  SKY/WX   TEMP    WIND        PRES    VSBY
                                AIR SEA DIR/SP/G
                 (UTC)          (F)     (DEG/KT/KT) (MB)    (MI)
JOHNY MRCER PIER 0600            80 83   90/ 12/ 14 1017.0S
NC RESRV MASNBRO 0500            78      80/  4     1017.0S
OCEAN CREST PIER 0500            78 85   80/  9/ 11 1016.6F
SPRINGMAID  PIER 0600            80 84   90/ 12/ 14 1017.2F


................COASTAL AND OFFSHORE BUOYS................


STATION/POSITION TIME  SKY/WX   TEMP    WIND        PRES    VSBY
                                AIR SEA DIR/SP/G
                 (UTC)          (F)     (DEG/KT/KT) (MB)    (MI)
DIMNDSHOAL 41025 0600                   VRB  8/ 10  1018.2F
WVE H/P(F/S)=  4/ 7 WND WVE H/P(F/S)=  2/ 3 SWL H/P/D(F/S/D)=  3/100/ 7

CAPE LOOKOUT     0500            79      80/ 11/ 12 1018.2R
ONSLOW BAY 41036 0600            80 81   80/ 12/ 14 1018.0S
WVE H/P(F/S)=  3/ 6 WND WVE H/P(F/S)=  2/ 6 SWL H/P/D(F/S/D)=  2/120/ 6

5 WRITEBCH 41038 0500            77 81  100/ 14/ 16   N/A
MASONBORO  41110 0600               81                N/A
WVE H/P(F/S)=  3/ 5 WND WVE H/P(F/S)=  3/ 5

WILM HARBR 41108 NOT AVBL
27WRITEBCH 41037 0500            77 81  110/ 10/ 12 1017.5R
FRYING PAN 41013 NOT AVBL
SUNST NRSH 41024 NOT AVBL
CAPRS NRSH 41029 0500            82     120/ 12/ 16   N/A
EDISTO     41004 0600            82 83   90/ 14/ 16 1015.5F
WVE H/P(F/S)=  4/ 6 WND WVE H/P(F/S)=  3/ 6 SWL H/P/D(F/S/D)=  2/ 8



..........OFFSHORE BUOYS BEYOND 100 NM OFFSHORE...........
.....IN A TRIANGLE---HAT TO BERMUDA TO BAHAMAS TO HAT.....


STATION/POSITION TIME  SKY/WX   TEMP    WIND        PRES    VSBY
                                AIR SEA DIR/SP/G
                 (UTC)          (F)     (DEG/KT/KT) (MB)    (MI)
150E HAT   41001 NOT AVBL
W BERMUDA  41048 0525            80 82  190/ 12/ 14 1019.2R
WVE H/P(F/S)=  5/ 7 WND WVE H/P(F/S)=  3/ 5 SWL H/P/D(F/S/D)=  3/220/ 7

ATLANTIC S 41049 0538            81 83  100/ 14/ 16 1020.4F
WVE H/P(F/S)=  4/ 6 WND WVE H/P(F/S)=  3/ 6 SWL H/P/D(F/S/D)=  2/100/ 7

E BAHAMAS  41046 0508            81 84  120/ 14/ 16 1017.0F
WVE H/P(F/S)=  4/ 6 WND WVE H/P(F/S)=  3/ 6 SWL H/P/D(F/S/D)=  2/120/ 9

NE BAHAMAS 41047 0517            83 84  150/ 12/ 14 1018.2F
WVE H/P(F/S)=  4/ 7 WND WVE H/P(F/S)=  2/ 5 SWL H/P/D(F/S/D)=  3/110/ 7

120E CANVRL41010 0600            83 85  190/  8/ 10 1015.6F
WVE H/P(F/S)=  2/ 8 WND WVE H/P(F/S)=  2/ 3 SWL H/P/D(F/S/D)=  2/100/ 8


END


USA.gov is the U.S. government's official web portal to all federal, state and local government web resources and services.